Location: Bergheim
(50.9593°N, 6.6400°E)
Time: 12:02:41
(UTC+02:00)

ISS - Visible Passes

Search period start: 16 July 2019 00:00
Search period end: 26 July 2019 00:00
Orbit: 409 x 418 km, 51.6° (Epoch: 16 July)

Date Brightness Start Highest point End Pass type
(mag) Time Alt. Az. Time Alt. Az. Time Alt. Az.
16 Jul -3.9 01:31:30 10° WSW 01:34:51 89° SSE 01:38:11 10° E visible
16 Jul -3.8 03:08:15 10° W 03:11:36 84° N 03:14:55 10° E visible
16 Jul -3.3 04:45:01 10° W 04:48:09 39° SSW 04:51:16 10° SE visible
16 Jul -2.5 23:06:36 10° SSW 23:09:13 21° SE 23:11:51 10° E visible
17 Jul -4.0 00:42:13 10° WSW 00:45:33 73° SSE 00:48:52 10° ENE visible
17 Jul -3.7 02:18:57 10° W 02:22:17 77° N 02:25:37 10° E visible
17 Jul -3.7 03:55:40 10° W 03:58:56 54° SSW 04:02:11 10° SE visible
17 Jul -3.8 23:53:00 10° SW 23:56:17 55° SSE 23:59:33 10° E visible
18 Jul -3.7 01:29:37 10° W 01:32:57 77° N 01:36:16 10° E visible
18 Jul -3.9 03:06:21 10° WNW 03:09:40 72° SSW 03:12:58 10° ESE visible
18 Jul -2.5 04:43:24 10° W 04:45:59 21° SW 04:48:32 10° SSE visible
18 Jul -3.4 23:03:53 10° SW 23:07:02 40° SSE 23:10:11 10° E visible
19 Jul -3.8 00:40:15 10° W 00:43:36 83° N 00:46:56 10° E visible
19 Jul -3.9 02:17:01 10° W 02:20:21 88° SSW 02:23:41 10° ESE visible
19 Jul -3.0 03:53:51 10° W 03:56:49 30° SSW 03:59:46 10° SSE visible
19 Jul -3.9 23:50:55 10° WSW 23:54:16 85° SSE 23:57:36 10° E visible
20 Jul -3.8 01:27:40 10° W 01:31:01 81° N 01:34:21 10° E visible
20 Jul -3.5 03:04:25 10° W 03:07:36 43° SSW 03:08:58 27° SSE visible
20 Jul-1.104:45:50S04:45:50S04:41:06Wvisible
20 Jul -3.9 23:01:37 10° WSW 23:04:56 68° SSE 23:08:15 10° ENE visible
21 Jul -3.7 00:38:18 10° W 00:41:39 77° N 00:44:59 10° E visible
21 Jul -3.6 02:15:01 10° W 02:17:55 53° WSW 02:17:55 53° WSW visible
21 Jul -3.6 22:12:22 10° SW 22:15:38 51° SSE 22:18:53 10° E visible
21 Jul -3.7 23:48:55 10° W 23:52:15 78° N 23:55:36 10° E visible
22 Jul -4.0 01:25:40 10° WNW 01:29:00 77° SSW 01:29:16 70° SE visible
22 Jul -3.8 22:59:31 10° W 23:02:52 86° NNW 23:06:13 10° E visible
23 Jul -3.9 00:36:17 10° W 00:39:38 88° NNE 00:41:01 33° E visible
23 Jul -1.5 02:13:05 10° W 02:13:48 15° W 02:13:48 15° W visible
23 Jul -3.8 22:10:08 10° WSW 22:13:30 81° SSE 22:16:51 10° ENE visible
23 Jul -3.7 23:46:53 10° W 23:50:14 79° N 23:52:54 15° E visible
24 Jul -2.6 01:23:37 10° W 01:25:43 32° WSW 01:25:43 32° WSW visible
24 Jul -3.6 22:57:28 10° W 23:00:49 77° N 23:04:10 10° E visible
25 Jul -3.9 00:34:12 10° WNW 00:37:31 64° SSW 00:37:42 62° S visible
25 Jul -3.6 22:08:02 10° W 22:11:24 80° N 22:14:45 10° E visible
25 Jul -3.9 23:44:47 10° WNW 23:48:09 81° SSW 23:49:45 28° ESE visible
